User: anonymous   Login
Location: Unspecified
(0.0000°N, 0.0000°E)
Time: 22:41:27
(UTC+00:00)
Language:

OV2-5 - Orbit

View from above orbital plane
View from above orbital plane
View from above satellite
View from above satellite

Ground track
Ground track

The orbit data is extracted from the following two-line orbital elements,

1  3428U 68081A   18174.75048374 -.00000010 +00000-0 +00000-0 0  9991
2  3428 005.1609 310.0457 0088321 333.5138 047.7370 01.01555282091454
Epoch (UTC): 23 June 2018 18:00:41
Eccentricity: 0.0088321
inclination: 5.1609°
perigee height: 35061 km
apogee height: 35799 km
right ascension of ascending node: 310.0457°
argument of perigee: 333.5138°
revolutions per day: 1.01555282
mean anomaly at epoch: 47.7370°
orbit number at epoch: 9145

The dashed part of the orbit path shows where the satellite is in the earth's shadow,  

DLR